31/08/2026 / 05/09/2026
| Fecha / Hora | Descripción | Porcentaje Nubes | Temperatura | Humedad | Viento | |
| lunes 31/08/2026 12:00 hs | lluvia de gran intensidad | 100 % | 19.7 ° | 77 % | 5.5 Km/h | |
| lunes 31/08/2026 15:00 hs | lluvia de gran intensidad | 100 % | 20.9 ° | 88 % | 8 Km/h | |
| lunes 31/08/2026 18:00 hs | lluvia moderada | 100 % | 22 ° | 99 % | 8.2 Km/h | |
| lunes 31/08/2026 21:00 hs | lluvia moderada | 100 % | 21 ° | 99 % | 5.6 Km/h | |
| martes 01/09/2026 00:00 hs | lluvia moderada | 100 % | 20.5 ° | 98 % | 1.4 Km/h | |
| martes 01/09/2026 03:00 hs | lluvia ligera | 100 % | 21.1 ° | 98 % | 12.3 Km/h | |
| martes 01/09/2026 06:00 hs | nubes | 100 % | 19.9 ° | 96 % | 5.8 Km/h | |
| martes 01/09/2026 09:00 hs | nubes | 92 % | 21.6 ° | 91 % | 7.1 Km/h | |
| martes 01/09/2026 12:00 hs | lluvia ligera | 85 % | 23.5 ° | 91 % | 20.1 Km/h | |
| martes 01/09/2026 15:00 hs | lluvia ligera | 93 % | 21.3 ° | 93 % | 21.3 Km/h | |
| martes 01/09/2026 18:00 hs | lluvia ligera | 88 % | 20.1 ° | 93 % | 19.1 Km/h | |
| martes 01/09/2026 21:00 hs | lluvia ligera | 64 % | 18.1 ° | 90 % | 19.4 Km/h | |
| miércoles 02/09/2026 00:00 hs | algo de nubes | 16 % | 16.9 ° | 88 % | 12.4 Km/h | |
| miércoles 02/09/2026 03:00 hs | cielo claro | 6 % | 16.3 ° | 86 % | 11.2 Km/h | |
| miércoles 02/09/2026 06:00 hs | cielo claro | 0 % | 13.7 ° | 86 % | 10.7 Km/h | |
| miércoles 02/09/2026 09:00 hs | cielo claro | 0 % | 16.9 ° | 71 % | 9 Km/h | |
| miércoles 02/09/2026 12:00 hs | cielo claro | 0 % | 19.6 ° | 56 % | 13.1 Km/h | |
| miércoles 02/09/2026 15:00 hs | cielo claro | 0 % | 18.7 ° | 63 % | 11.2 Km/h | |
| miércoles 02/09/2026 18:00 hs | cielo claro | 0 % | 15.8 ° | 75 % | 5.4 Km/h | |
| miércoles 02/09/2026 21:00 hs | cielo claro | 0 % | 14.7 ° | 82 % | 8.8 Km/h | |
| jueves 03/09/2026 00:00 hs | cielo claro | 0 % | 13.7 ° | 87 % | 12.5 Km/h | |
| jueves 03/09/2026 03:00 hs | cielo claro | 0 % | 13.4 ° | 89 % | 17 Km/h | |
| jueves 03/09/2026 06:00 hs | cielo claro | 0 % | 13.1 ° | 87 % | 20.6 Km/h | |
| jueves 03/09/2026 09:00 hs | cielo claro | 0 % | 17.6 ° | 66 % | 21.6 Km/h | |
| jueves 03/09/2026 12:00 hs | cielo claro | 0 % | 22.5 ° | 49 % | 19.1 Km/h | |
| jueves 03/09/2026 15:00 hs | cielo claro | 0 % | 22.1 ° | 57 % | 22 Km/h | |
| jueves 03/09/2026 18:00 hs | cielo claro | 0 % | 17.9 ° | 82 % | 19.8 Km/h | |
| jueves 03/09/2026 21:00 hs | cielo claro | 0 % | 16.6 ° | 88 % | 16 Km/h | |
| viernes 04/09/2026 00:00 hs | cielo claro | 0 % | 16.4 ° | 85 % | 14.7 Km/h | |
| viernes 04/09/2026 03:00 hs | cielo claro | 0 % | 16.4 ° | 80 % | 7.7 Km/h | |
| viernes 04/09/2026 06:00 hs | cielo claro | 0 % | 16.9 ° | 76 % | 7.4 Km/h | |
| viernes 04/09/2026 09:00 hs | cielo claro | 0 % | 19.7 ° | 71 % | 14.3 Km/h | |
| viernes 04/09/2026 12:00 hs | cielo claro | 0 % | 21 ° | 74 % | 23.2 Km/h | |
| viernes 04/09/2026 15:00 hs | nubes dispersas | 33 % | 18.9 ° | 81 % | 21.9 Km/h | |
| viernes 04/09/2026 18:00 hs | nubes | 98 % | 17 ° | 88 % | 16.5 Km/h | |
| viernes 04/09/2026 21:00 hs | lluvia ligera | 99 % | 15.9 ° | 91 % | 11.9 Km/h | |
| sábado 05/09/2026 00:00 hs | lluvia ligera | 100 % | 15.3 ° | 94 % | 11.9 Km/h | |
| sábado 05/09/2026 03:00 hs | lluvia ligera | 100 % | 15.5 ° | 93 % | 7.2 Km/h | |
| sábado 05/09/2026 06:00 hs | lluvia ligera | 100 % | 15.3 ° | 95 % | 10.4 Km/h | |
| sábado 05/09/2026 09:00 hs | lluvia de gran intensidad | 100 % | 15.6 ° | 97 % | 15.9 Km/h |
Fuente: Open Weather Map
© 2009 / 2026 - BrasilPlayas.com
Diseño y desarrollo: ArraialWebDesign
Los artículos publicados en esta web son propiedad intelectual de sus respectivos autores, que se reservan todos los derechos sobre los mismos
Las imágenes contenidas en este sitio están sujetas a la respectiva licencia y acreditación que las acompaña
Este website usa Cookies. Saber más sobre nuestra política de Cookies